SIRIUSSAT-1 (43595 NORAD) Tracking and Keplerian Element Data

This shows tracking and keplerian element data for the satellite.

Feedback or suggestion? Click here.




ElementValue
Catalog43595
NameSIRIUSSAT-1
Epoch Orbit5276
Epoch Day201.19839779
Epoch Year2019
RAAN185.1983
Inclination51.6351
Eccentricity0.0002495
Argument of Perigee227.2712
Mean Anonmoly132.8072
Mean Motion15.6159668
Decay Rate6.65E-05
L11 43595U 98067PG 19201.19839779 .00006650 00000-0 81823-4 0 9995
L22 43595 51.6351 185.1983 0002495 227.2712 132.8072 15.61596680 52767

Live tracking and technical data element details for SIRIUSSAT-1 (NORAD 43595). SIRIUSSAT-1 can be tracked NOW for your location showing map with azimuth and elevation plus other details from your city location.

Track the satellite on the map from your city or location and see movement details for azimuth, elevation, latitude, longitude, range, height, and movement on the map or in text.







IsCatalogInMostPopularTable: catalog: 43595, numindb: 170
Update: records affected: 1



GetName: 43595 SIRIUSSAT-1

Hit Count: updated at: Sat, 20 Jul 2019 22:13:28 GMT